User: anonymous   Login
Location: Caltech
(34.1382°N, 118.1253°W)
Time: 00:33:05
(UTC-08:00)
Language:

ASTRO E2 - Orbit

View from above orbital plane
View from above orbital plane
View from above satellite
View from above satellite

Ground track
Ground track

The orbit data is extracted from the following two-line orbital elements,

1 28773U 05025A   14326.23256403  .00009206  00000-0  54199-3 0  4162
2 28773 031.3833 241.7398 0005645 316.2356 175.2366 15.10377928515093
Epoch (UTC): 22 November 2014 05:34:53
Eccentricity: 0.0005645
inclination: 31.3833°
perigee height: 531 km
apogee height: 539 km
right ascension of ascending node: 241.7398°
argument of perigee: 316.2356°
revolutions per day: 15.10377928
mean anomaly at epoch: 175.2366°
orbit number at epoch: 51509

The dashed part of the orbit path shows where the satellite is in the earth's shadow,  

DLR